CAPE
43 627 1132 1368 1036 934 884 856 797 745 780 731 614 512 439 313 215 237 418 399 558 685 957 1005 1089 904 736 628 518 522 1168 1386 1149 1191 1595 1188 1347 1578 1466 1420 1480 1545 1602
206 858 1089 1277 1123 1031 992 973 978 962 904 792 828 794 668 656 530 432 312 375 599 704 1144 1194 975 1242 819 652 706 764 970 1262 1275 886 1555 1557 1536 1528 1923 1778 1928 1804 1765
378 1273 1285 1345 1230 1128 1118 1094 1107 1020 993 977 865 868 861 733 786 792 738 768 780 878 1204 1278 1168 996 917 991 898 773 1378 1478 1379 1488 921 823 968 1222 1243 1890 1541 2022 1712
852 1266 1437 1324 1345 1312 1357 1297 1213 1302 1379 1417 1037 964 906 830 914 825 909 963 966 1082 1044 1009 1304 1192 1201 1214 961 912 1316 986 1167 851 106 289 936 1205 1339 1292 1459 1248 1245
958 1203 1337 1459 1622 1795 1775 1722 1559 1595 1468 1393 994 1060 1083 1033 1116 1102 1031 1156 1055 1142 810 1123 1194 1259 1326 1300 1425 1624 1493 669 399 55 0 47 397 1263 1511 1657 1306 1661 1244
804 1152 1667 1705 1655 1593 1580 1604 1707 1717 1434 1204 1542 1631 1474 1426 1328 1402 1306 1182 1264 981 787 1247 1613 1532 1623 1349 1060 1163 1343 511 160 27 0 72 263 1208 1600 1694 1728 1489 1629
773 1367 1638 1651 1522 1469 1447 1416 1469 1430 1456 1446 1461 1685 1706 1425 1298 1471 1255 1338 1186 1112 1238 1299 1396 1597 1364 1402 1237 1442 1028 1009 224 95 28 54 314 1005 1035 1552 1687 1665 1672
688 1371 1550 1677 1706 1526 1662 1776 1525 1621 1514 1760 1662 1552 1834 1735 1488 1549 1710 1365 1362 1268 1193 1102 1183 1490 1430 1049 838 736 889 837 570 46 2 9 273 1189 1693 1597 1792 1523 1414
1055 1220 1759 1721 1643 1700 1357 936 1398 1787 1840 1442 1602 1602 1361 1547 1520 1508 1621 1345 1359 1232 1187 1444 1412 1246 1437 1257 1212 1643 1304 1142 218 82 29 0 265 1766 1937 1793 1701 1401 1006
1050 1138 1269 1353 1410 1917 1369 537 750 1502 1869 1861 1944 1817 1575 1661 1107 917 1013 971 1066 1284 1316 1361 1271 1239 1253 1375 1207 1108 1189 1180 115 98 76 109 94 1762 1455 1584 1276 841 741
587 636 707 710 1313 1052 800 987 595 792 1163 1249 1229 1129 1118 723 1396 1433 1148 1408 1436 1404 1228 1073 916 953 1320 1404 1116 1225 1131 482 191 84 60 67 395 683 1511 1526 1370 952 1080
66 57 109 308 1174 1123 726 1148 1057 1217 1306 514 915 969 1286 479 630 673 721 948 944 1015 1079 957 1136 1210 1327 944 991 1102 1112 884 362 190 254 381 462 581 657 760 915 1325 907
0 2 0 0 581 1158 600 1491 1205 857 1529 977 1208 910 460 458 708 996 524 575 299 328 317 265 196 321 762 470 535 653 775 539 250 167 195 333 394 509 282 447 533 1391 1174
119 86 123 2 248 1205 1064 718 963 385 320 173 399 610 616 741 256 199 203 243 5 101 24 51 107 187 180 323 302 311 322 240 57 0 0 326 341 472 771 550 670 1219 1562
82 92 132 139 245 805 1056 337 292 719 512 268 448 638 648 568 78 0 76 13 18 77 81 61 91 83 142 201 209 144 95 100 8 3 0 125 214 302 675 550 506 632 1103
21 75 110 170 183 488 981 627 538 763 516 96 23 352 586 308 34 0 0 30 115 103 138 104 68 72 72 209 256 188 94 73 33 25 3 129 468 202 294 343 280 156 286
41 85 178 175 193 416 819 841 597 516 496 244 156 301 505 398 131 85 14 94 109 121 176 181 128 126 121 158 225 163 139 147 152 112 161 214 227 180 181 178 136 117 120
0 6 239 238 532 567 855 817 618 409 238 249 347 438 535 474 116 129 311 207 133 97 88 119 118 143 160 156 197 225 230 299 332 315 249 191 167 119 111 176 144 21 77
0 0 87 301 204 406 722 977 878 831 863 313 358 545 496 479 213 103 59 47 45 133 216 485 444 296 161 193 199 171 223 298 261 300 146 153 119 76 86 100 65 54 32
0 2 63 174 198 327 444 520 723 914 1144 1175 1089 714 666 400 198 122 149 128 312 221 180 269 527 351 245 179 315 311 186 214 188 126 181 147 101 106 116 96 64 88 57
0 14 18 247 407 509 649 727 926 1007 1097 1252 1356 1170 836 680 541 413 393 561 467 318 356 437 654 468 386 623 593 206 254 212 173 142 98 114 153 150 138 143 108 112 95
2 12 48 241 429 617 757 883 1093 1185 1172 1323 1448 1399 1399 1128 935 754 534 261 229 360 361 407 512 302 315 595 309 321 232 201 236 214 137 102 154 245 168 127 104 101 98
67 85 186 210 585 723 896 990 1226 1379 1669 1631 1501 1236 1336 1290 898 634 285 69 81 126 200 278 626 456 542 596 528 416 239 183 179 68 102 134 96 143 132 120 97 99 36
203 217 285 461 790 896 1109 1195 1344 1554 1502 1403 1350 1334 1374 1077 509 277 235 213 45 32 258 449 604 539 532 468 242 328 336 315 324 201 27 100 55 16 11 24 99 111 118
197 325 370 598 911 1136 1361 1465 1643 1756 1712 1684 1382 1139 771 380 216 222 250 244 144 421 533 660 570 446 524 497 435 388 419 385 291 246 161 103 139 84 11 0 22 43 181
169 408 544 680 1049 1341 1477 1639 1893 2055 1840 1287 956 666 390 318 121 443 362 418 663 657 658 609 592 580 503 460 441 424 388 325 324 392 189 88 98 70 1 0 0 1 152
CIN
-93 -14 -0 -0 -0 -0 -2 -4 -2 -0 -0 -0 -5 -16 -17 -23 -24 -29 -23 -26 -21 -19 -9 -3 -4 -9 -15 -13 -25 -27 -5 -7 -29 -22 -11 -34 -21 -0 -1 -6 -2 -0 -0
-83 -5 -1 -0 -0 -0 -3 -2 -1 -1 -1 -3 -2 -4 -9 -10 -22 -30 -33 -29 -26 -24 -8 -4 -13 -4 -12 -13 -9 -12 -14 -13 -21 -36 -4 -5 -7 -5 -0 -0 -0 -0 -0
-64 -0 -1 -1 -0 -1 -2 -1 -4 -7 -4 -2 -6 -5 -9 -12 -8 -13 -19 -11 -22 -15 -5 -3 -8 -14 -9 -7 -8 -15 -5 -10 -13 -3 -22 -38 -22 -17 -8 -0 -0 -0 -0
-33 -1 -0 -0 -0 -1 -0 -0 -3 -0 -0 -0 -0 -2 -10 -8 -3 -13 -3 -0 -8 -4 -11 -10 -3 -5 -2 -3 -5 -14 -4 -7 -9 -22 -114 -68 -20 -19 -8 -2 -1 -6 -10
-32 -12 -1 -2 -0 -0 -0 -0 -0 -0 -0 -0 -3 -0 -1 -0 -0 -3 -0 -0 -0 -0 -16 -5 -6 -1 -1 -4 -1 -0 -3 -27 -56 -29 -0 -131 -66 -7 -1 -1 -5 -1 -5
-58 -28 -0 -0 -0 -0 -0 -0 -0 -0 -0 -0 -0 -0 -0 -0 -0 -0 -0 -0 -0 -1 -13 -2 -0 -0 -0 -1 -8 -5 -10 -38 -86 -186 -0 -128 -92 -8 -0 -0 -0 -0 -0
-80 -27 -2 -0 -1 -0 -0 -0 -0 -0 -0 -0 -0 -0 -0 -0 -0 -0 -0 -0 -0 -0 -0 -2 -0 -0 -0 -0 -5 -2 -7 -17 -84 -130 -171 -151 -84 -27 -2 -0 -0 -0 -0
-145 -42 -12 -0 -0 -0 -0 -0 -0 -0 -0 -0 -0 -0 -0 -0 -0 -0 -0 -0 -0 -0 -1 -13 -2 -0 -0 -6 -13 -9 -4 -18 -55 -85 -36 -115 -81 -23 -0 -0 -0 -0 -0
-115 -83 -9 -1 -1 -0 -9 -50 -13 -0 -0 -0 -0 -0 -0 -0 -0 -0 -0 -0 -0 -0 -3 -0 -2 -10 -1 -10 -9 -2 -1 -8 -72 -103 -117 -0 -89 -3 -0 -0 -0 -0 -4
-109 -99 -73 -47 -41 -2 -38 -129 -92 -8 -0 -0 -0 -0 -1 -0 -0 -0 -0 -0 -0 -0 -0 -0 -0 -2 -2 -2 -12 -18 -14 -4 -91 -104 -96 -92 -84 -0 -0 -0 -7 -41 -23
-134 -154 -152 -143 -81 -103 -119 -77 -107 -77 -33 -22 -17 -15 -10 -19 -1 -0 -3 -2 -0 -0 -0 -3 -4 -2 -1 -0 -8 -9 -18 -29 -47 -117 -139 -104 -40 -9 -0 -0 -14 -40 -18
-274 -310 -263 -202 -118 -106 -117 -76 -74 -50 -32 -70 -42 -32 -9 -45 -28 -15 -11 -10 -12 -10 -4 -6 -6 -1 -0 -12 -9 -10 -20 -31 -46 -47 -54 -53 -42 -19 -41 -8 -2 -2 -29
-0 -204 -0 -0 -164 -103 -125 -70 -80 -80 -34 -60 -30 -41 -57 -57 -41 -18 -25 -14 -27 -21 -26 -22 -28 -26 -17 -30 -34 -24 -30 -41 -54 -57 -48 -62 -46 -45 -64 -48 -7 -0 -5
-182 -195 -183 -29 -175 -89 -96 -117 -90 -114 -117 -120 -95 -75 -59 -42 -91 -85 -76 -40 -42 -83 -44 -49 -49 -33 -40 -43 -42 -38 -34 -42 -82 -0 -0 -49 -32 -30 -28 -42 -13 -1 -0
-192 -198 -176 -217 -172 -120 -96 -147 -139 -96 -96 -131 -90 -80 -81 -66 -101 -0 -78 -104 -87 -52 -60 -50 -39 -41 -36 -48 -45 -40 -46 -53 -95 -41 -0 -60 -34 -28 -6 -16 -36 -10 -1
-179 -180 -173 -186 -184 -146 -93 -96 -111 -95 -86 -168 -159 -95 -82 -79 -118 -0 -0 -83 -76 -44 -69 -43 -47 -35 -26 -23 -30 -52 -44 -56 -97 -112 -88 -73 -24 -29 -31 -12 -16 -12 -15
-174 -142 -136 -136 -152 -120 -79 -68 -96 -93 -86 -106 -120 -88 -85 -79 -120 -100 -147 -77 -64 -40 -40 -38 -37 -37 -29 -30 -23 -35 -46 -60 -80 -67 -46 -26 -26 -24 -22 -17 -12 -18 -16
-0 -106 -126 -100 -92 -84 -73 -75 -81 -86 -88 -106 -98 -88 -79 -70 -144 -101 -78 -80 -58 -66 -71 -81 -66 -40 -37 -34 -36 -27 -44 -45 -39 -50 -52 -46 -42 -13 -3 -4 -9 -23 -19
-0 -0 -111 -105 -82 -63 -78 -78 -66 -56 -57 -106 -108 -79 -87 -86 -130 -124 -128 -108 -99 -64 -46 -33 -43 -50 -54 -36 -35 -47 -41 -46 -52 -47 -77 -61 -58 -46 -24 -8 -10 -13 -17
-0 -43 -105 -83 -78 -89 -90 -91 -76 -70 -60 -51 -45 -58 -71 -130 -133 -151 -107 -129 -73 -66 -64 -54 -27 -47 -69 -68 -24 -45 -82 -72 -72 -86 -72 -67 -71 -56 -33 -29 -26 -13 -12
-0 -115 -96 -108 -105 -109 -111 -95 -78 -62 -59 -46 -36 -51 -68 -88 -100 -78 -67 -60 -63 -75 -109 -49 -29 -37 -31 -24 -6 -76 -81 -79 -84 -91 -81 -71 -61 -51 -38 -34 -45 -45 -14
-101 -124 -131 -101 -108 -122 -109 -98 -72 -60 -61 -45 -46 -47 -42 -57 -49 -31 -26 -38 -40 -73 -86 -53 -19 -35 -28 -52 -57 -76 -78 -84 -77 -79 -83 -82 -75 -56 -33 -34 -31 -43 -23
-144 -130 -107 -111 -108 -124 -128 -108 -87 -67 -55 -46 -43 -62 -43 -54 -56 -56 -49 -24 -41 -88 -87 -67 -20 -32 -29 -21 -37 -11 -36 -57 -63 -112 -61 -53 -72 -62 -75 -57 -44 -31 -36
-176 -161 -147 -130 -115 -129 -133 -102 -80 -55 -46 -41 -33 -65 -53 -64 -60 -85 -97 -59 -81 -128 -60 -46 -31 -24 -36 -32 -73 -57 -33 -19 -9 -49 -106 -71 -105 -128 -136 -98 -85 -27 -18
-193 -190 -178 -136 -121 -129 -128 -106 -71 -69 -56 -53 -62 -74 -91 -116 -126 -117 -110 -112 -110 -62 -48 -29 -29 -34 -40 -34 -28 -35 -16 -15 -12 -6 -20 -30 -41 -57 -117 -0 -95 -108 -73
-223 -198 -193 -151 -127 -126 -123 -110 -85 -69 -65 -98 -105 -112 -138 -125 -145 -92 -93 -71 -37 -33 -20 -20 -24 -28 -33 -37 -30 -29 -16 -4 -3 -1 -14 -50 -34 -45 -15 -0 -0 -58 -55
Wind_Speed
31 29 29 28 26 26 24 23 23 23 24 24 23 23 22 20 20 24 25 25 25 24 25 26 26 27 27 27 27 26 25 25 24 22 21 22 25 24 23 22 23 25 23
32 30 29 29 29 27 25 24 23 22 23 23 23 24 24 23 24 26 25 24 24 24 25 26 25 25 26 26 26 26 25 23 23 22 23 24 24 23 22 21 23 25 24
32 31 30 30 29 27 26 25 24 24 25 23 22 23 25 24 25 25 24 24 24 24 24 24 24 24 24 24 24 24 23 23 24 20 23 23 22 21 21 21 21 23 22
32 31 30 30 29 28 27 27 25 26 23 23 22 25 25 24 24 23 24 24 23 24 24 23 23 23 23 23 23 22 22 22 21 21 18 21 20 21 20 19 19 20 21
30 30 30 30 30 29 28 27 26 26 25 25 24 25 25 25 24 24 24 23 23 23 23 22 23 23 23 23 23 22 22 21 20 18 15 18 20 19 19 19 18 18 19
30 31 30 30 29 29 29 28 28 27 25 25 25 25 24 24 24 23 23 22 22 22 22 21 22 22 22 22 21 20 20 20 19 17 18 19 19 18 18 18 17 18 19
31 30 29 29 29 28 29 28 28 27 26 26 25 24 24 24 23 23 22 22 21 21 20 20 20 20 19 20 20 18 18 18 17 18 17 15 17 18 17 17 17 17 19
30 29 28 28 28 27 27 27 27 27 26 25 25 24 24 24 23 22 22 21 21 20 20 19 19 19 19 18 18 18 17 16 16 17 17 16 17 17 16 15 17 18 19
29 27 27 28 28 27 26 26 26 26 25 25 24 24 23 22 21 20 20 19 19 19 19 18 18 17 17 16 16 17 18 15 14 15 15 16 16 15 16 15 16 18 19
26 27 26 28 27 27 26 26 25 25 24 24 23 23 22 21 20 19 18 18 17 17 17 16 16 15 15 15 14 15 16 16 13 13 14 11 9 15 14 15 15 17 19
27 28 27 27 27 26 25 25 24 24 22 22 21 20 20 19 18 19 18 17 15 14 14 14 13 13 14 15 15 15 14 15 13 13 12 10 9 9 10 12 18 17 17
28 28 27 26 26 25 25 24 23 22 21 21 20 19 18 18 17 17 17 15 14 13 12 13 12 11 12 12 12 12 12 11 9 9 10 9 10 11 9 10 14 17 16
28 28 27 26 25 24 24 23 22 22 21 20 19 18 18 16 16 16 16 14 13 13 14 12 12 11 10 10 11 13 13 11 10 7 7 10 12 14 10 12 12 11 14
26 27 26 25 23 23 22 21 20 22 21 17 19 19 17 15 14 14 14 13 12 11 12 13 11 11 10 10 10 11 10 10 6 6 6 10 14 12 12 11 12 12 13
25 25 25 24 23 23 23 23 23 22 21 19 18 18 16 16 14 14 13 11 10 10 11 10 11 10 9 9 9 8 6 8 7 4 8 14 16 12 13 14 14 14 13
25 24 25 24 23 22 22 21 21 20 19 18 17 16 15 15 14 13 11 9 6 7 6 5 6 6 6 6 7 7 7 7 4 3 3 13 15 13 17 17 14 15 12
26 25 24 25 23 22 23 21 20 19 18 16 15 16 15 13 13 10 8 7 8 11 16 14 17 9 10 8 6 4 3 4 5 3 5 13 11 14 15 15 16 15 15
24 24 24 24 23 22 21 19 17 17 14 15 16 14 13 11 11 8 7 7 8 9 24 25 11 18 3 4 6 4 8 9 8 2 1 4 8 9 15 17 16 16 14
24 23 23 24 23 21 21 19 18 18 16 15 14 12 11 9 7 5 5 6 8 9 13 17 12 13 5 6 7 4 5 8 12 5 2 2 3 6 7 13 15 16 16
24 23 23 23 21 21 19 17 16 15 13 12 10 9 7 6 6 3 3 6 8 11 6 9 5 21 13 12 10 13 6 8 6 5 4 2 3 4 4 5 15 14 15
23 23 22 21 19 19 17 16 15 13 12 10 7 10 9 5 4 4 3 7 11 16 22 10 8 11 21 8 7 10 9 12 12 10 6 3 1 4 8 5 5 6 9
23 24 22 20 20 20 18 17 13 12 10 10 9 7 8 8 8 4 3 3 11 12 19 19 13 10 8 8 9 10 19 17 9 8 7 5 5 5 2 3 1 4 6
23 23 23 20 19 19 19 16 12 11 10 10 9 10 11 10 8 8 7 7 13 17 5 18 19 9 9 10 10 10 10 11 8 8 9 7 6 7 7 6 4 3 2
24 23 21 19 17 16 15 15 13 11 10 9 8 9 12 13 14 13 13 16 18 17 13 12 10 11 10 9 9 9 8 7 8 8 11 8 8 6 7 7 7 4 1
22 21 19 18 16 14 15 13 12 10 8 12 13 14 14 14 15 18 19 19 16 13 10 9 10 10 9 7 7 7 7 7 7 8 11 14 16 14 10 8 6 7 5
21 19 18 18 16 15 16 14 12 8 8 11 13 15 14 15 16 17 17 16 13 10 10 11 11 12 11 10 10 10 10 12 13 11 13 15 15 18 16 14 15 10 7
Wind_Direction
134 123 117 109 101 96 87 80 78 77 77 75 75 74 74 74 77 88 91 89 92 83 92 91 97 99 109 109 109 105 91 86 81 75 72 75 100 95 85 73 78 92 73
125 122 118 113 111 105 95 88 83 78 79 79 77 80 83 84 91 102 99 97 98 96 101 103 97 103 111 104 106 108 103 92 89 82 91 98 113 110 90 85 91 97 86
122 123 122 117 116 110 105 97 93 90 89 81 79 84 89 92 100 105 103 111 106 106 109 107 102 109 113 110 107 114 105 102 108 80 106 111 103 109 113 91 87 96 85
122 120 117 120 119 118 116 114 102 106 91 87 84 98 97 97 99 99 108 116 110 110 114 109 110 110 111 113 116 113 112 115 107 119 155 125 99 97 96 90 88 86 89
118 119 121 122 122 123 121 118 119 118 103 99 93 103 104 109 104 102 109 112 109 111 111 103 111 111 110 111 110 111 109 108 99 104 94 126 119 100 96 96 92 86 90
119 123 123 123 124 126 127 124 123 117 105 103 108 106 111 117 113 111 107 111 110 117 114 108 112 110 112 118 110 109 110 111 102 91 91 105 115 106 102 104 90 92 99
123 123 120 122 122 122 126 127 130 124 118 115 117 114 108 109 111 109 110 108 113 116 115 115 114 110 106 117 120 103 106 111 112 132 96 89 103 111 100 105 101 98 110
119 119 118 119 119 118 120 123 128 129 128 127 122 124 124 113 111 114 109 110 109 113 113 112 114 119 122 121 129 128 115 104 122 126 116 104 106 114 108 93 103 109 117
115 114 118 122 123 123 117 125 127 123 127 124 119 121 125 121 120 115 112 109 110 112 112 112 114 117 126 127 132 133 140 118 111 125 116 120 117 119 115 110 112 121 128
113 118 118 125 128 124 129 128 127 127 124 125 121 122 125 130 121 121 117 117 115 114 112 115 115 121 129 132 134 137 140 130 117 114 126 103 98 135 126 129 123 127 134
125 129 128 128 133 132 130 133 130 131 128 128 125 123 124 132 134 135 132 127 115 114 112 121 119 123 136 144 145 145 144 149 131 132 136 132 124 126 125 132 147 136 135
133 136 136 136 139 135 136 138 139 136 135 134 133 133 129 127 136 151 147 131 125 125 127 134 135 129 137 145 145 150 151 145 130 130 141 146 141 145 131 147 156 153 144
135 137 139 140 138 137 142 143 147 145 142 137 141 140 140 134 142 144 146 135 134 139 145 146 141 140 141 144 158 165 171 153 153 134 128 161 156 158 159 159 162 151 150
135 139 140 141 137 138 145 146 141 148 146 138 144 145 144 137 128 135 137 136 129 134 152 162 153 155 158 154 157 169 170 182 150 145 156 164 165 168 168 163 166 166 162
133 139 143 139 140 143 145 150 151 150 148 141 148 154 152 150 143 140 146 136 132 143 156 153 155 158 162 161 158 159 162 169 163 146 161 180 194 184 182 174 166 171 173
141 141 145 144 143 145 148 151 152 150 155 160 155 154 149 149 147 138 140 130 103 96 84 93 118 117 122 111 147 168 178 173 165 161 213 189 184 186 175 182 182 183 182
145 143 144 150 146 146 149 151 152 156 157 160 154 155 157 150 152 120 123 95 57 2 339 338 326 7 7 41 118 103 125 144 172 164 359 192 188 186 184 187 193 191 193
138 142 144 145 141 136 141 134 130 140 138 148 149 149 154 151 155 133 81 71 56 37 294 266 189 214 112 69 155 112 22 13 351 358 24 184 196 196 204 203 197 203 199
147 139 142 145 146 143 144 138 138 144 141 138 146 151 154 148 133 120 69 46 32 37 8 342 186 185 113 154 172 159 43 12 2 36 62 145 207 213 220 208 210 208 203
150 148 145 148 148 148 141 133 130 133 147 148 158 161 134 144 149 110 70 41 24 9 61 14 179 235 184 185 192 206 171 182 170 169 165 154 189 223 229 217 211 209 202
150 148 147 145 143 139 133 133 129 129 136 139 119 181 181 136 109 123 48 21 359 334 271 164 115 163 243 71 62 22 14 203 201 199 185 169 58 198 196 223 223 238 215
153 154 150 145 144 145 142 141 126 122 110 125 117 147 119 102 106 105 92 92 357 338 305 308 349 31 55 93 57 49 351 360 123 137 133 128 118 128 92 7 355 191 199
157 156 155 150 144 146 148 136 115 107 108 103 124 87 85 86 88 78 89 115 145 159 241 283 321 60 127 124 144 129 92 66 88 116 72 115 125 98 91 117 47 152 197
161 160 158 153 148 143 141 138 134 137 132 118 97 107 74 74 66 70 86 106 124 144 175 187 158 154 141 162 174 171 166 82 70 71 54 71 75 97 82 89 84 117 198
161 162 161 158 155 145 147 146 146 141 126 51 56 56 67 67 64 68 74 87 103 123 152 134 113 111 132 145 164 156 94 74 62 43 27 24 18 22 46 66 100 87 55
165 165 163 163 163 156 156 155 147 120 64 44 47 52 55 62 56 62 70 73 86 103 103 92 77 59 60 68 63 57 50 33 25 24 11 8 8 1 5 11 10 38 69